Weather History for Kirksville, MO

Change the Weather History Date:

Saturday, March 9, 2013

  Actual Average Record
Temperature  
Mean Temperature 42 °F 38 °F  
Max Temperature 47 °F 48 °F 74 °F (1974)
Min Temperature 36 °F 28 °F 1 °F (1978)
Degree Days  
Heating Degree Days 23 27  
Month to date heating degree days 334 260  
Since 1 July heating degree days 4714 4793  
Cooling Degree Days 0 0  
Month to date cooling degree days 0 0  
Year to date cooling degree days 0 0  
Moisture  
Dew Point 36 °F    
Average Humidity 88    
Maximum Humidity 100    
Minimum Humidity 76    
Precipitation  
Precipitation 1.78 in 0.08 in 1.78 in (2013)
Month to date precipitation 1.95 0.72  
Year to date precipitation 7.40 3.52  
Sea Level Pressure  
Sea Level Pressure 29.91 in    
Wind  
Wind Speed 11 mph (SE)    
Max Wind Speed 18 mph    
Max Gust Speed 22 mph    
Visibility 5 miles    
Events Fog , Rain , Thunderstorm    
T = Trace of Precipitation, MM = Missing Value Source: NWS Daily Summary

Daily Weather History Graph

Daily Weather History Graph

Search for Another Location

Airport:

Trip Planner

Search our weather history database for the weather conditions in past years. The results will help you decide how hot, cold, wet, or windy it might be!

Date:

Astronomy

Mar. 09, 2013 Rise Set
Actual Time 6:30 AM CST 6:10 PM CST
Civil Twilight 6:03 AM CST 6:38 PM CST
Nautical Twilight 5:32 AM CST 7:09 PM CST
Astronomical Twilight 5:00 AM CST 7:41 PM CST
Moon 4:55 AM CST (3/9) 4:13 PM CST (3/9)
Length of Visible Light 12h 34m
Length of Day
11h 40m
Waning Crescent, 5% of the Moon is Illuminated
Mar 9
Waning Crescent
Mar 11
New
Mar 19
First Quarter
Mar 27
Full
Apr 2
Last Quarter

Hourly Weather History & Observations

Time (CST) Temp. Windchill Dew Point Humidity Pressure Visibility Wind Dir Wind Speed Gust Speed Precip Events Conditions
12:55 AM 37.0 °F 28.9 °F 32.0 °F 82% 30.12 in 5.0 mi SSE 12.7 mph - 0.06 in Rain Rain
1:35 AM 35.6 °F 26.6 °F 33.8 °F 93% 30.10 in 4.0 mi South 13.8 mph - 0.03 in Rain Light Rain
1:55 AM 36.0 °F 26.7 °F 33.1 °F 89% 30.13 in 4.0 mi SSE 15.0 mph - 0.07 in Rain Light Rain
2:04 AM 35.6 °F 27.1 °F 33.8 °F 93% 30.09 in 3.0 mi SE 12.7 mph - 0.03 in Rain Light Rain
2:55 AM 36.0 °F 28.5 °F 34.0 °F 93% 30.10 in 4.0 mi SE 10.4 mph - 0.11 in Rain Light Rain
3:15 AM 35.6 °F 27.1 °F 33.8 °F 93% 30.05 in 2.5 mi SE 12.7 mph - 0.04 in Rain Light Rain
3:32 AM 35.6 °F 27.1 °F 35.6 °F 100% 30.04 in 3.0 mi SE 12.7 mph - 0.10 in Rain Light Rain
3:55 AM 36.0 °F 26.7 °F 35.1 °F 97% 30.06 in 4.0 mi SE 15.0 mph - 0.12 in Rain Light Rain
4:26 AM 35.6 °F 25.9 °F 35.6 °F 100% 30.02 in 3.0 mi SE 16.1 mph - 0.00 in Rain Light Rain
4:46 AM 35.6 °F 25.5 °F 35.6 °F 100% 30.01 in 4.0 mi SE 17.3 mph - 0.01 in Rain Light Rain
4:55 AM 36.0 °F 27.1 °F 35.1 °F 97% 30.04 in 4.0 mi SE 13.8 mph - 0.02 in Rain Light Rain
5:55 AM 35.6 °F 26.2 °F 33.8 °F 93% 30.00 in 5.0 mi SE 15.0 mph - N/A Rain Light Rain
6:52 AM 35.6 °F 25.5 °F 35.6 °F 100% 29.98 in 6.0 mi SE 17.3 mph - 0.00 in   Overcast
6:55 AM 36.0 °F 27.1 °F 35.1 °F 97% 30.02 in 6.0 mi SE 13.8 mph - 0.00 in   Overcast
7:55 AM 36.0 °F 27.1 °F 35.1 °F 97% 30.01 in 5.0 mi SE 13.8 mph - N/A   Overcast
8:55 AM 37.0 °F 28.5 °F 35.1 °F 93% 29.99 in 5.0 mi SE 13.8 mph - N/A   Overcast
9:11 AM 37.4 °F 28.5 °F 35.6 °F 93% 29.95 in 5.0 mi SE 15.0 mph - N/A   Overcast
9:55 AM 37.0 °F 28.9 °F 35.1 °F 93% 29.96 in 6.0 mi SE 12.7 mph - 0.00 in   Overcast
10:55 AM 37.0 °F 28.1 °F 35.1 °F 93% 29.93 in 7.0 mi SE 15.0 mph - N/A   Overcast
11:55 AM 39.0 °F 30.6 °F 35.1 °F 86% 29.89 in 7.0 mi SE 15.0 mph - N/A   Mostly Cloudy
12:55 PM 39.0 °F 32.8 °F 35.1 °F 86% 29.87 in 8.0 mi SSE 9.2 mph - N/A   Overcast
1:55 PM 41.0 °F 35.8 °F 35.1 °F 79% 29.81 in 10.0 mi SE 8.1 mph - N/A   Overcast
2:55 PM 39.9 °F 35.1 °F 35.1 °F 83% 29.80 in 9.0 mi SE 6.9 mph - N/A   Overcast
3:55 PM 41.0 °F 37.1 °F 35.1 °F 79% 29.78 in 9.0 mi ESE 5.8 mph - N/A   Overcast
4:55 PM 39.9 °F 36.7 °F 36.0 °F 86% 29.80 in 10.0 mi NW 4.6 mph - N/A   Overcast
5:55 PM 37.9 °F 32.7 °F 34.0 °F 86% 29.77 in 8.0 mi NE 6.9 mph - N/A   Overcast
6:55 PM 39.0 °F 33.4 °F 35.1 °F 86% 29.76 in 10.0 mi NE 8.1 mph - N/A   Overcast
7:31 PM 37.4 °F 32.1 °F 35.6 °F 93% 29.75 in 9.0 mi NNW 6.9 mph - 0.00 in Rain , Thunderstorm Light Rain
7:46 PM 41.0 °F 33.9 °F 35.6 °F 81% 29.78 in 8.0 mi NW 12.7 mph - 0.00 in   Overcast
7:55 PM 39.9 °F 32.5 °F 36.0 °F 86% 29.81 in 3.0 mi NW 12.7 mph - 0.02 in Rain Rain
8:41 PM 39.2 °F 33.0 °F 37.4 °F 93% 29.74 in 2.0 mi ENE 9.2 mph - 0.08 in Rain Rain
8:55 PM 39.0 °F 36.8 °F 39.0 °F 100% 29.78 in 1.8 mi East 3.5 mph - 0.12 in Rain Heavy Rain
9:28 PM 42.8 °F 36.2 °F 42.8 °F 100% 29.73 in 0.5 mi SE 12.7 mph - 0.31 in Fog , Rain Rain
9:55 PM 42.1 °F 36.6 °F 42.1 °F 100% 29.76 in 0.2 mi SE 9.2 mph - 0.38 in Fog , Rain Rain
10:31 PM 44.6 °F 40.2 °F 44.6 °F 100% 29.74 in 0.2 mi SSE 8.1 mph - 0.47 in Fog , Rain Heavy Rain
10:40 PM 42.8 °F 36.2 °F 42.8 °F 100% 29.74 in 0.2 mi SSE 12.7 mph - 0.54 in Fog , Rain Heavy Rain
10:55 PM 43.0 °F 36.4 °F 43.0 °F 100% 29.76 in 0.2 mi SE 12.7 mph - 0.64 in Fog , Rain Heavy Rain
11:55 PM 43.0 °F 36.4 °F 43.0 °F 100% 29.74 in 0.2 mi SE 12.7 mph - 0.22 in Fog , Rain Rain